sat.trackr.live / text

‹ back to catalog

STARLINK-5395

NORAD 54831 · 2022-177M

PAYLOAD ACTIVE UNKNOWN

§ Identity

Operator
Country
US
Launch date
2022-12-28
Launch site
AFETR
Launch vehicle
Mass (kg)
RCS (m²)

Purposes: comms

External: N2YO · Heavens-Above · Gunter

§ Orbital elements

Epoch: 2026-05-25T03:02:34.302624Z

Period
94.27 min
Inclination
43.0034°
Eccentricity
0.0001224
Mean motion
15.27578250 rev/d
Perigee alt
482.2 km
Apogee alt
483.9 km
Semi-major
6,861.2 km
B*
2.6520e-5
RAAN
64.3602°
Arg perigee
240.5490°
Mean anomaly
119.5239°
Rev number
18,861

§ Raw data

STARLINK-53951 54831U 22177M   26145.12678591  .00000468  00000+0  26520-4 0  99932 54831  43.0034  64.3602 0001224 240.5490 119.5239 15.27578250188617

JSON: /api/v1/satellites/54831 · /tle

For live sub-satellite position, see the globe view (requires WebGL).

§ Visibility from observer

Set your observer location to see the next 7 days of passes ≥ 10°. The values pass through the URL so the page stays shareable.

No JS? Fill the form by hand. The geolocation button needs JavaScript.